When you browse on this site, cookies collect data to enhance your experience and personalize the content and advertising you see.
Visit our Privacy Policy to learn more. By continuing to use the site, you agree to this use of cookies and data.
  • In Hungary
  • List of Countries
  • For 7 days
  • Water Temperature
  • Weather Map
  • News
  • Weather Widgets
  • user-avatar
    Login

    Hourly Weather Napier

    Today, 13 December, Friday

    Time Temperature Precipitation Wind Pressure Humidity
    00:00 +15°C° 0 mm 1 mps 754 mmHg 97%
    01:00 +14°C° 0 mm 1 mps 753 mmHg 97%
    02:00 +14°C° 0 mm 1 mps 753 mmHg 97%
    03:00 +14°C° 0 mm 1 mps 753 mmHg 97%
    04:00 +14°C° 0 mm 1 mps 753 mmHg 96%
    05:00 +15°C° 0 mm 1 mps 753 mmHg 95%
    06:00 +16°C° 0 mm 1 mps 753 mmHg 94%
    07:00 +19°C° 0 mm 1 mps 753 mmHg 82%
    08:00 +21°C° 0 mm 2 mps 753 mmHg 71%
    09:00 +25°C° 0 mm 2 mps 753 mmHg 59%
    10:00 +26°C° 0 mm 2 mps 752 mmHg 55%
    11:00 +27°C° 0 mm 3 mps 751 mmHg 52%
    12:00 +27°C° 0 mm 3 mps 751 mmHg 48%
    13:00 +27°C° 0 mm 3 mps 750 mmHg 49%
    14:00 +27°C° 0 mm 4 mps 750 mmHg 51%
    15:00 +27°C° 0 mm 4 mps 750 mmHg 52%
    16:00 +26°C° 0 mm 3 mps 750 mmHg 55%
    17:00 +25°C° 0 mm 3 mps 749 mmHg 57%
    18:00 +24°C° 0 mm 2 mps 749 mmHg 61%
    19:00 +23°C° 0 mm 2 mps 750 mmHg 65%
    20:00 +21°C° 0 mm 1 mps 751 mmHg 69%
    21:00 +19°C° 0 mm 1 mps 751 mmHg 73%
    22:00 +19°C° 0 mm 1 mps 751 mmHg 72%
    23:00 +17°C° 0 mm 2 mps 751 mmHg 71%

    Tomorrow, 14 December, Saturday

    Time Temperature Precipitation Wind Pressure Humidity
    00:00 +16°C° 0 mm 2 mps 751 mmHg 69%
    01:00 +16°C° 0 mm 2 mps 751 mmHg 72%
    02:00 +16°C° 0 mm 2 mps 752 mmHg 74%
    03:00 +15°C° 0 mm 2 mps 752 mmHg 77%
    04:00 +16°C° 0 mm 2 mps 752 mmHg 76%
    05:00 +17°C° 0 mm 2 mps 752 mmHg 76%
    06:00 +17°C° 0 mm 2 mps 752 mmHg 75%
    07:00 +20°C° 0 mm 2 mps 752 mmHg 66%
    08:00 +24°C° 0 mm 2 mps 753 mmHg 58%
    09:00 +26°C° 0 mm 2 mps 753 mmHg 49%
    10:00 +27°C° 0 mm 2 mps 753 mmHg 46%
    11:00 +27°C° 0 mm 2 mps 753 mmHg 42%
    12:00 +28°C° 0 mm 2 mps 753 mmHg 39%
    13:00 +28°C° 0 mm 3 mps 752 mmHg 38%
    14:00 +28°C° 0 mm 4 mps 752 mmHg 37%
    15:00 +29°C° 0 mm 5 mps 752 mmHg 36%
    16:00 +27°C° 0 mm 5 mps 752 mmHg 44%
    17:00 +25°C° 0 mm 5 mps 752 mmHg 52%
    18:00 +22°C° 0 mm 5 mps 752 mmHg 60%
    19:00 +21°C° 0 mm 4 mps 753 mmHg 66%
    20:00 +19°C° 0 mm 3 mps 754 mmHg 72%
    21:00 +18°C° 0 mm 2 mps 754 mmHg 78%
    22:00 +17°C° 0 mm 2 mps 754 mmHg 80%
    23:00 +16°C° 0 mm 2 mps 755 mmHg 81%

    Day after tomorrow, 15 December, Sunday

    Time Temperature Precipitation Wind Pressure Humidity
    00:00 +15°C° 0 mm 1 mps 755 mmHg 83%
    01:00 +15°C° 0 mm 2 mps 755 mmHg 83%
    02:00 +14°C° 0 mm 2 mps 755 mmHg 83%
    03:00 +13°C° 0 mm 2 mps 755 mmHg 84%
    04:00 +14°C° 0 mm 2 mps 755 mmHg 81%
    05:00 +14°C° 0 mm 2 mps 755 mmHg 78%
    06:00 +15°C° 0 mm 2 mps 755 mmHg 75%
    07:00 +17°C° 0 mm 2 mps 755 mmHg 66%
    08:00 +19°C° 0 mm 2 mps 755 mmHg 56%
    09:00 +22°C° 0 mm 3 mps 756 mmHg 47%
    10:00 +22°C° 0 mm 3 mps 755 mmHg 47%
    11:00 +24°C° 0 mm 3 mps 755 mmHg 47%
    12:00 +24°C° 0 mm 3 mps 755 mmHg 46%
    13:00 +23°C° 0 mm 4 mps 754 mmHg 45%
    14:00 +25°C° 0 mm 5 mps 754 mmHg 44%
    15:00 +25°C° 0 mm 5 mps 754 mmHg 43%
    16:00 +25°C° 0 mm 5 mps 754 mmHg 44%
    17:00 +25°C° 0 mm 4 mps 754 mmHg 44%
    18:00 +25°C° 0 mm 3 mps 754 mmHg 44%
    19:00 +22°C° 0 mm 3 mps 755 mmHg 50%
    20:00 +20°C° 0 mm 3 mps 755 mmHg 57%
    21:00 +19°C° 0 mm 3 mps 756 mmHg 63%
    22:00 +18°C° 0 mm 3 mps 756 mmHg 68%
    23:00 +17°C° 0 mm 3 mps 756 mmHg 73%

    16 December, Monday

    Time Temperature Precipitation Wind Pressure Humidity
    00:00 +16°C° 0 mm 3 mps 756 mmHg 77%
    01:00 +16°C° 0 mm 3 mps 755 mmHg 77%
    02:00 +16°C° 0 mm 2 mps 755 mmHg 77%
    03:00 +16°C° 0 mm 2 mps 755 mmHg 77%
    04:00 +17°C° 0 mm 2 mps 755 mmHg 75%
    05:00 +17°C° 0 mm 3 mps 755 mmHg 73%
    06:00 +18°C° 0 mm 3 mps 755 mmHg 71%
    07:00 +20°C° 0 mm 3 mps 756 mmHg 64%
    08:00 +22°C° 0 mm 3 mps 756 mmHg 57%
    09:00 +25°C° 0 mm 4 mps 756 mmHg 50%
    10:00 +26°C° 0 mm 4 mps 756 mmHg 46%
    11:00 +27°C° 0 mm 4 mps 755 mmHg 42%
    12:00 +28°C° 0 mm 5 mps 755 mmHg 38%
    13:00 +27°C° 0.1 mm 5 mps 755 mmHg 42%
    14:00 +26°C° 0.1 mm 5 mps 754 mmHg 46%
    15:00 +25°C° 0.1 mm 5 mps 754 mmHg 49%
    16:00 +25°C° 0 mm 5 mps 754 mmHg 51%
    17:00 +23°C° 0 mm 5 mps 754 mmHg 53%
    18:00 +23°C° 0 mm 5 mps 754 mmHg 55%
    19:00 +22°C° 0 mm 5 mps 754 mmHg 60%
    20:00 +21°C° 0 mm 4 mps 754 mmHg 66%
    21:00 +20°C° 0 mm 4 mps 754 mmHg 71%
    22:00 +19°C° 0 mm 4 mps 754 mmHg 73%
    23:00 +19°C° 0 mm 4 mps 753 mmHg 75%

    17 December, Tuesday

    Time Temperature Precipitation Wind Pressure Humidity
    00:00 +19°C° 0 mm 4 mps 753 mmHg 78%
    01:00 +19°C° 0 mm 4 mps 753 mmHg 77%
    02:00 +19°C° 0 mm 4 mps 752 mmHg 77%
    03:00 +19°C° 0 mm 4 mps 752 mmHg 76%
    04:00 +19°C° 0 mm 5 mps 751 mmHg 76%
    05:00 +19°C° 0 mm 5 mps 751 mmHg 75%
    06:00 +20°C° 0 mm 5 mps 751 mmHg 74%
    07:00 +21°C° 0 mm 6 mps 751 mmHg 68%
    08:00 +22°C° 0 mm 6 mps 750 mmHg 62%
    09:00 +24°C° 0 mm 7 mps 750 mmHg 56%
    10:00 +26°C° 0 mm 7 mps 749 mmHg 53%
    11:00 +26°C° 0 mm 7 mps 749 mmHg 49%
    12:00 +27°C° 0 mm 8 mps 748 mmHg 46%
    13:00 +26°C° 0.1 mm 7 mps 747 mmHg 53%
    14:00 +24°C° 0.1 mm 7 mps 746 mmHg 59%
    15:00 +22°C° 0.1 mm 7 mps 746 mmHg 66%
    16:00 +21°C° 0.4 mm 7 mps 745 mmHg 73%
    17:00 +20°C° 0.4 mm 7 mps 745 mmHg 79%
    18:00 +19°C° 0.4 mm 6 mps 744 mmHg 86%
    19:00 +17°C° 0.2 mm 6 mps 744 mmHg 85%
    20:00 +16°C° 0.2 mm 6 mps 745 mmHg 84%
    21:00 +15°C° 0.2 mm 6 mps 745 mmHg 82%
    22:00 +14°C° 0 mm 5 mps 745 mmHg 84%
    23:00 +14°C° 0 mm 5 mps 745 mmHg 85%

    18 December, Wednesday

    Time Temperature Precipitation Wind Pressure Humidity
    00:00 +13°C° 0 mm 5 mps 745 mmHg 86%
    01:00 +13°C° 0 mm 4 mps 745 mmHg 86%
    02:00 +12°C° 0 mm 3 mps 745 mmHg 86%
    03:00 +12°C° 0 mm 3 mps 745 mmHg 87%
    04:00 +13°C° 0.3 mm 2 mps 745 mmHg 89%
    05:00 +13°C° 0.3 mm 2 mps 745 mmHg 91%
    06:00 +13°C° 0.3 mm 1 mps 745 mmHg 94%
    07:00 +12°C° 2.8 mm 3 mps 745 mmHg 95%
    08:00 +12°C° 2.8 mm 4 mps 745 mmHg 96%
    09:00 +12°C° 2.8 mm 5 mps 745 mmHg 98%
    10:00 +12°C° 0.8 mm 4 mps 745 mmHg 94%
    11:00 +13°C° 0.8 mm 4 mps 746 mmHg 91%
    12:00 +14°C° 0.8 mm 3 mps 746 mmHg 87%
    13:00 +13°C° 0.5 mm 4 mps 747 mmHg 88%
    14:00 +13°C° 0.5 mm 5 mps 747 mmHg 90%
    15:00 +13°C° 0.5 mm 6 mps 748 mmHg 91%
    16:00 +12°C° 0.6 mm 5 mps 748 mmHg 91%
    17:00 +10°C° 0.6 mm 5 mps 749 mmHg 92%
    18:00 +10°C° 0.6 mm 4 mps 750 mmHg 92%
    19:00 +10°C° 0.1 mm 3 mps 751 mmHg 93%
    20:00 +10°C° 0.1 mm 3 mps 752 mmHg 93%
    21:00 +10°C° 0.1 mm 3 mps 753 mmHg 94%
    22:00 +9°C° 0 mm 2 mps 754 mmHg 93%
    23:00 +8°C° 0 mm 2 mps 754 mmHg 93%
    Show more